Barter Island, AK

5:20 AM AKST on February 25, 2018 (GMT -0900)
Barter Island LRRS

Weather History for PABA - January, 2013

Change the Weather History Date:

Tuesday, January 1, 2013

  Actual Average Record
Temperature  
Mean Temperature -6 °F -  
Max Temperature 0 °F 0 °F 32 °F (2017)
Min Temperature -11 °F -12 °F -95 °F (1997)
Degree Days  
Heating Degree Days 70    
Moisture  
Dew Point -10 °F    
Average Humidity 84    
Maximum Humidity 87    
Minimum Humidity 82    
Precipitation  
Precipitation 0.00 in - - ()
Sea Level Pressure  
Sea Level Pressure 29.91 in    
Wind  
Wind Speed 20 mph (East)    
Max Wind Speed 29 mph    
Max Gust Speed 33 mph    
Visibility 8 miles    
Events      
Averages and records for this station are not official NWS values.
T = Trace of Precipitation, MM = Missing Value Source: NWS Daily Summary

Daily Weather History Graph

Daily Weather History Graph

Search for Another Location

Airport or City:

Trip Planner

Search our weather history database for the weather conditions in past years. The results will help you decide how hot, cold, wet, or windy it might be!

Date:

Astronomy

Dec. 31, 1969 Rise Set
Actual Time Sun does not rise Sun does not rise
Civil Twilight 10:25 AM AKST 2:51 PM AKST
Nautical Twilight 8:39 AM AKST 4:36 PM AKST
Astronomical Twilight 7:20 AM AKST 5:56 PM AKST
Moon 9:25 PM AKST (1/1) 11:02 AM AKST (1/1)
Length of Visible Light 4h 26m
Length of Day
0h 00m
Waning Gibbous, 82% of the Moon is Illuminated
Jan 1
Waning Gibbous
Jan 4
Last Quarter
Jan 11
New
Jan 18
First Quarter
Jan 26
Full

Hourly Weather History & Observations

Time (AKST) Temp. Windchill Dew Point Humidity Pressure Visibility Wind Dir Wind Speed Gust Speed Precip Events Conditions
12:01 AM -7.1 °F -29.8 °F -11.0 °F 83% 30.16 in 10.0 mi East 17.3 mph - N/A   Clear
1:01 AM -7.1 °F -29.8 °F -11.0 °F 83% 30.17 in 10.0 mi East 17.3 mph - N/A   Clear
2:01 AM -8.0 °F -30.3 °F -11.0 °F 86% 30.16 in 10.0 mi East 16.1 mph - N/A   Clear
3:01 AM -8.0 °F -31.0 °F -11.9 °F 83% 30.14 in 10.0 mi East 17.3 mph - N/A   Clear
4:01 AM -9.0 °F -32.4 °F -13.0 °F 83% 30.15 in 9.0 mi East 17.3 mph - N/A   Clear
5:01 AM -9.9 °F -34.8 °F -14.1 °F 82% 30.11 in 10.0 mi East 19.6 mph - N/A   Clear
6:01 AM -11.0 °F -36.2 °F -14.1 °F 86% 30.11 in 10.0 mi East 19.6 mph - N/A   Clear
7:01 AM -9.9 °F -34.8 °F -14.1 °F 82% 30.07 in 10.0 mi East 19.6 mph - N/A   Clear
8:01 AM -9.0 °F -32.4 °F -13.0 °F 83% 30.06 in 10.0 mi East 17.3 mph - N/A   Clear
9:01 AM -8.0 °F -32.8 °F -11.9 °F 83% 30.06 in 8.0 mi East 20.7 mph - N/A   Clear
10:01 AM -6.0 °F -30.7 °F -9.9 °F 83% 30.01 in 7.0 mi East 21.9 mph - N/A   Clear
11:01 AM -6.0 °F -30.2 °F -9.9 °F 83% 29.98 in 8.0 mi East 20.7 mph - N/A   Clear
12:01 PM -6.0 °F -29.6 °F -9.9 °F 83% 29.96 in 7.0 mi East 19.6 mph - N/A   Clear
1:01 PM -6.0 °F -32.2 °F -9.0 °F 87% 29.89 in 5.0 mi East 25.3 mph - N/A   Clear
2:01 PM -5.1 °F -29.5 °F -9.0 °F 83% 29.87 in 6.0 mi East 21.9 mph - N/A   Clear
3:01 PM -5.1 °F -31.0 °F -8.0 °F 87% 29.83 in 5.0 mi East 25.3 mph - N/A   Clear
4:01 PM -4.0 °F -30.0 °F -8.0 °F 83% 29.77 in 5.0 mi East 26.5 mph - N/A   Clear
5:01 PM -2.9 °F -28.6 °F -7.1 °F 82% 29.74 in 5.0 mi East 26.5 mph - N/A   Clear
6:01 PM -2.9 °F -29.4 °F -6.0 °F 87% 29.70 in 4.0 mi East 28.8 mph - N/A   Clear
7:01 PM -2.0 °F -26.4 °F -6.0 °F 83% 29.66 in 6.0 mi East 24.2 mph - N/A   Clear
8:01 PM -2.0 °F -27.3 °F -5.1 °F 87% 29.61 in 5.0 mi East 26.5 mph - N/A   Clear
9:01 PM -0.9 °F -25.0 °F -5.1 °F 83% 29.57 in 5.0 mi East 24.2 mph 33.4 mph N/A   Clear
10:01 PM -2.0 °F -27.3 °F -5.1 °F 87% 29.55 in 7.0 mi East 26.5 mph - N/A   Clear
11:01 PM -2.0 °F -27.8 °F -5.1 °F 87% 29.52 in 8.0 mi ENE 27.6 mph - N/A   Clear